Probability
0 0 0 0 0 0 0 0 0 0 0 0 0 0 0 0 0 0 0 0 0 0 0 0 0 0 0 0 0 0 0 0 0 0 0 0 0 0 0 0 0 0 0
0 0 0 0 0 0 0 0 0 0 0 0 0 0 0 0 0 0 0 0 0 0 0 0 0 0 0 0 0 0 0 0 0 0 0 0 0 0 0 0 0 0 0
0 0 0 0 0 0 0 0 0 0 0 0 0 0 0 0 0 0 0 0 0 0 0 0 0 0 0 0 0 0 0 0 0 0 0 0 0 0 0 0 0 0 0
0 0 0 0 0 0 0 0 0 0 0 0 0 0 0 0 0 0 0 0 0 0 0 0 0 0 0 0 0 0 0 0 0 0 0 0 0 0 0 0 0 0 0
0 0 0 0 0 0 0 0 0 0 0 0 0 0 0 0 0 0 0 0 0 0 0 0 0 0 0 0 0 0 0 0 0 0 0 0 0 0 0 0 0 0 0
0 0 0 0 0 0 0 0 0 0 0 0 0 0 0 0 0 0 0 0 0 0 0 0 0 0 0 0 0 0 0 0 0 0 0 0 0 0 0 0 0 0 0
0 0 0 0 0 0 0 0 0 0 0 0 0 0 0 0 0 0 0 0 0 0 0 0 0 0 0 0 0 0 0 0 0 0 0 0 0 0 0 0 0 0 0
0 0 0 0 0 0 0 0 0 0 0 0 0 0 0 0 0 0 0 0 0 0 0 0 0 0 0 0 0 0 0 0 0 0 0 0 0 0 0 0 0 0 0
0 0 0 0 0 0 0 0 0 0 0 0 0 0 0 0 0 0 0 0 0 0 0 0 0 0 0 0 0 0 0 0 0 0 0 0 0 0 0 0 0 0 0
0 0 0 0 0 0 0 0 0 0 0 0 0 0 0 0 0 0 0 0 0 0 0 0 0 0 0 0 0 0 0 0 0 0 0 0 0 0 0 0 0 0 0
0 0 0 0 0 0 0 0 0 0 0 0 0 0 0 0 0 0 0 0 0 0 0 0 0 0 0 0 0 0 0 0 0 0 0 0 0 0 0 0 0 0 0
0 0 0 0 0 0 0 0 0 0 0 0 0 0 0 0 0 0 0 0 0 0 0 0 0 0 0 0 0 0 0 0 0 0 0 0 0 0 0 0 0 0 0
0 0 0 0 0 0 0 0 0 0 0 0 0 0 0 0 0 0 0 0 0 0 0 0 0 0 0 0 0 0 0 0 0 0 0 0 0 0 0 0 0 0 0
0 0 0 0 0 0 0 0 0 0 0 0 0 0 0 0 0 0 0 0 0 0 0 0 0 0 0 0 0 0 0 0 0 0 0 0 0 0 0 0 0 0 0
0 0 0 0 0 0 0 0 0 0 0 0 0 0 0 0 0 0 0 0 0 0 0 0 0 0 0 0 0 0 0 0 0 0 0 0 0 0 0 0 0 0 0
0 0 0 0 0 0 0 0 0 0 0 0 0 0 0 0 0 0 0 0 0 0 0 0 0 0 0 0 0 0 0 0 0 0 0 0 0 0 0 0 0 0 0
0 0 0 0 0 0 0 0 0 0 0 0 0 0 0 0 0 0 0 0 0 0 0 0 0 0 0 0 0 0 0 0 0 0 0 0 0 0 0 0 0 0 0
0 0 0 0 0 0 0 0 0 0 0 0 0 0 0 0 0 0 0 0 0 0 0 0 0 0 0 0 0 0 0 0 0 0 0 0 0 0 0 0 0 0 0
0 0 0 0 0 0 0 0 0 0 0 0 0 0 0 0 0 0 0 0 0 0 0 0 0 0 0 0 0 0 0 0 0 0 0 0 0 0 0 0 0 0 0
0 0 0 0 0 0 0 0 0 0 0 0 0 0 0 0 0 0 0 0 0 0 0 0 0 0 0 0 0 0 0 0 0 0 0 0 0 0 0 0 0 0 0
0 0 0 0 0 0 0 0 0 0 0 0 0 0 0 0 0 0 0 0 0 0 0 0 0 0 0 0 0 0 0 0 0 0 0 0 0 0 0 0 0 0 0
0 0 0 0 0 0 0 0 0 0 0 0 0 0 0 0 0 0 0 0 0 0 0 0 0 0 0 0 0 0 0 0 0 0 0 0 0 0 0 0 0 0 0
0 0 0 0 0 0 0 0 0 0 0 0 0 0 0 0 0 0 0 0 0 0 0 0 0 0 0 0 0 0 0 0 0 0 0 0 0 0 0 0 0 0 0
0 0 0 0 0 0 0 0 0 0 0 0 0 0 0 0 0 0 0 0 0 0 0 0 0 0 0 0 0 0 0 0 0 0 0 0 0 0 0 0 0 0 0
0 0 0 0 0 0 0 0 0 0 0 0 0 0 0 0 0 0 0 0 0 0 0 0 0 0 0 0 0 0 0 0 0 0 0 0 0 0 0 0 0 0 0
0 0 0 0 0 0 0 0 0 0 0 0 0 0 0 0 0 0 0 0 0 0 0 0 0 0 0 0 0 0 0 0 0 0 0 0 0 0 0 0 0 0 0
Wind_Speed
4 4 3 3 3 3 2 2 3 2 2 2 2 3 3 3 3 4 4 8 9 10 11 12 13 14 14 15 16 17 17 17 17 17 18 18 19 19 19 20 20 20 20
4 4 4 3 3 3 3 2 3 2 2 1 1 2 2 3 3 4 5 6 10 11 12 13 13 14 15 16 16 16 16 17 18 18 18 18 18 19 19 19 20 20 20
5 4 4 3 3 3 3 2 2 1 1 1 1 1 1 2 2 4 5 5 6 11 13 13 14 14 15 15 15 16 17 18 18 18 18 18 18 19 19 19 20 20 20
6 5 4 4 4 4 3 2 2 2 2 1 1 1 1 2 3 4 4 4 5 5 9 14 14 15 15 15 16 16 17 17 18 18 18 18 18 19 19 19 19 20 20
6 5 4 4 5 4 3 3 2 2 2 1 1 1 1 2 3 4 5 5 5 6 5 10 13 14 16 16 16 16 16 17 17 17 17 17 18 18 18 18 19 19 20
7 6 4 6 6 4 3 3 3 2 1 2 1 0 1 2 3 4 5 5 5 5 5 5 5 9 15 16 16 15 15 16 16 16 16 17 17 18 18 18 19 20 20
8 7 5 5 6 5 5 5 4 3 3 2 1 0 1 2 4 4 4 4 4 5 5 5 4 4 5 13 15 15 15 15 15 16 16 16 17 17 18 18 19 20 20
9 8 7 6 6 5 6 6 5 3 3 3 3 2 2 1 2 3 4 4 4 4 5 6 5 5 4 3 9 14 14 14 15 15 15 16 16 17 18 18 19 20 21
10 9 9 8 7 7 7 7 7 6 4 4 3 3 3 4 3 2 4 4 4 4 4 4 5 5 5 4 4 9 12 13 14 14 14 15 16 17 17 18 19 20 20
10 11 10 10 9 7 7 8 8 6 6 4 3 3 2 3 4 3 2 3 5 5 4 4 4 4 5 4 5 9 10 11 12 13 14 14 15 16 17 18 19 20 20
10 11 11 10 10 9 9 9 8 8 6 6 4 3 2 1 2 4 4 3 2 3 4 4 4 3 4 4 3 5 9 10 11 11 13 14 15 16 17 18 19 20 20
10 12 12 11 11 9 10 10 10 10 8 7 5 5 5 4 4 4 4 4 4 3 3 3 4 3 3 4 4 6 7 8 10 10 12 13 14 15 16 17 18 19 20
10 14 13 11 10 10 10 10 9 9 9 8 7 6 5 4 4 4 4 3 3 3 3 2 3 3 3 3 2 4 4 7 8 9 10 12 13 14 15 16 17 18 19
11 11 14 13 12 11 11 10 8 8 8 9 8 7 5 4 4 4 5 5 3 2 3 3 2 3 3 3 2 4 2 6 7 8 10 11 12 13 14 15 16 17 18
9 11 12 13 12 11 11 10 8 9 8 8 8 8 5 4 4 3 3 4 6 5 4 4 3 3 3 3 2 1 1 4 6 7 9 10 11 12 13 14 15 16 18
10 11 12 12 11 11 11 10 8 8 8 7 6 8 6 4 4 3 3 3 3 5 4 3 3 3 3 2 2 1 1 4 4 6 7 9 10 11 12 13 14 15 17
11 12 12 12 11 11 10 10 9 10 10 8 7 9 8 6 5 4 4 4 3 4 4 2 2 3 3 2 1 1 1 1 2 5 7 8 9 10 11 12 13 14 16
10 10 11 11 11 11 11 11 11 11 11 12 10 10 9 7 7 5 5 5 4 3 4 4 2 2 2 2 1 1 1 1 2 5 7 8 9 10 10 11 12 13 15
9 9 10 11 11 11 11 11 11 12 12 12 12 12 11 11 9 6 6 5 4 4 3 4 3 2 1 1 1 1 1 2 3 4 6 7 8 10 10 11 11 12 14
9 10 10 10 10 10 10 10 10 10 10 9 10 10 11 12 11 10 8 7 6 5 4 4 3 2 2 1 1 1 1 1 2 3 3 5 7 9 10 10 10 11 13
8 8 8 8 8 8 9 11 10 11 11 10 8 8 9 10 12 10 8 9 9 6 5 4 3 2 2 2 2 1 1 2 3 1 1 3 3 3 4 7 8 10 12
6 7 8 9 9 7 12 16 13 11 11 11 11 9 8 9 12 13 12 12 12 9 8 5 4 4 4 3 2 2 1 1 2 1 2 4 3 3 3 2 8 11 12
6 7 7 8 8 10 15 16 14 10 11 11 12 11 8 7 9 9 11 12 9 10 10 6 6 5 4 4 4 2 2 2 3 2 2 4 2 3 3 5 10 9 11
5 6 6 7 7 8 15 16 14 8 7 8 9 11 12 12 11 11 10 8 6 5 6 4 4 4 4 4 4 3 2 2 3 3 1 3 2 3 3 4 8 7 10
4 4 5 6 7 8 14 16 15 8 7 7 7 8 10 11 16 17 11 10 7 4 6 7 6 6 6 6 5 3 2 1 2 2 1 1 2 3 3 3 4 7 9
4 4 4 5 6 7 13 16 16 7 8 7 7 7 9 13 18 18 11 10 10 7 6 6 5 5 4 4 6 4 4 3 2 3 1 1 1 2 4 3 2 2 4
Wind_Direction
160 154 153 160 168 148 165 156 137 130 118 88 68 58 49 60 73 86 88 75 65 59 58 56 54 53 53 51 49 47 46 45 43 39 36 32 29 26 22 19 15 13 10
159 154 150 167 158 161 162 154 140 141 129 110 91 74 47 53 67 94 105 84 71 66 64 61 58 56 55 52 49 48 47 46 42 39 36 32 29 25 21 18 15 12 10
162 161 157 168 164 150 137 136 129 124 136 151 172 138 107 93 86 96 109 110 88 72 71 66 62 58 56 53 52 51 48 45 42 37 33 30 26 23 20 16 14 12 10
169 166 161 172 165 152 160 168 168 177 188 181 118 83 107 119 106 99 91 98 105 94 77 74 66 61 57 53 53 51 48 45 40 35 31 27 24 21 18 15 13 11 9
177 168 169 172 164 162 173 170 176 177 173 151 122 85 82 110 115 106 96 88 90 103 100 84 74 65 58 53 50 48 45 42 38 33 29 26 23 20 18 16 13 11 8
183 177 175 173 166 166 175 173 182 179 159 146 131 163 141 134 120 115 111 100 94 94 95 95 83 70 63 55 49 45 42 39 35 31 28 25 22 21 18 15 12 10 8
183 183 178 178 173 177 183 181 176 182 189 161 134 113 100 119 123 126 122 117 108 99 89 81 75 77 68 57 48 43 38 36 33 31 28 24 21 19 17 14 12 10 8
184 188 184 183 181 183 187 186 178 175 185 175 168 159 155 128 135 136 127 125 125 110 98 91 82 77 81 69 47 42 37 34 32 30 27 23 20 17 15 13 11 9 7
188 188 190 187 187 186 192 193 186 180 185 196 190 176 178 187 153 149 144 138 134 121 114 106 95 87 89 82 55 36 39 35 31 28 25 22 19 16 13 11 10 8 5
193 192 193 193 191 192 195 195 193 189 179 186 198 199 187 160 154 157 159 148 138 132 131 119 108 97 98 94 66 42 40 37 33 28 25 22 18 15 12 10 8 5 3
199 198 196 196 197 197 198 196 192 194 193 185 176 173 184 191 177 156 170 170 145 138 136 130 122 109 99 100 84 45 41 36 32 28 25 21 17 14 10 8 6 4 2
200 203 201 200 200 200 199 199 196 196 198 193 183 171 166 171 187 179 172 165 161 157 142 134 130 124 113 108 82 48 42 34 29 26 23 19 15 12 9 6 5 3 1
200 203 202 203 201 201 199 196 196 195 194 193 190 187 184 180 165 167 163 155 147 147 150 141 141 132 119 109 83 40 46 32 23 21 19 15 12 9 7 4 2 1 359
201 195 200 203 203 200 197 194 193 194 192 193 190 182 179 180 167 164 159 150 146 156 163 168 147 136 125 116 69 43 42 25 13 15 14 10 7 5 3 1 360 359 357
196 194 197 201 202 199 195 189 191 189 185 188 184 177 171 168 159 155 146 151 155 170 193 170 155 151 136 124 85 52 25 4 2 9 6 3 1 0 360 358 357 356 355
192 192 194 197 197 195 190 186 181 178 177 177 171 166 163 157 149 147 146 142 142 151 166 160 144 145 134 130 103 68 358 354 354 354 354 354 355 354 355 354 354 354 353
193 192 192 191 190 188 183 181 180 175 176 170 166 166 165 156 155 155 146 142 136 131 143 132 106 124 127 133 104 19 343 339 327 331 338 343 347 348 349 350 350 351 352
194 190 185 186 186 184 181 182 179 178 177 175 172 167 165 160 157 155 153 149 144 133 137 148 130 127 141 154 131 309 308 315 306 314 326 336 339 342 344 346 348 350 350
192 185 182 184 183 182 182 183 180 179 181 177 173 172 169 163 163 160 156 151 143 128 116 135 142 134 144 148 115 299 299 304 303 308 315 330 335 336 336 340 344 346 346
189 187 185 182 179 178 178 175 174 174 175 172 171 170 169 170 168 163 159 154 143 133 125 132 140 153 161 154 136 215 294 298 297 301 313 324 327 325 325 333 337 339 343
187 180 175 172 170 173 176 172 171 170 169 164 162 164 164 163 160 160 161 161 153 148 147 151 159 157 168 164 180 177 248 300 292 276 330 309 310 303 309 322 327 333 342
170 167 172 170 172 177 176 176 172 170 167 165 162 157 151 153 154 154 156 161 160 159 164 165 173 181 183 174 158 164 210 309 294 326 350 297 284 283 287 288 317 332 340
168 169 170 170 175 179 175 175 173 167 167 169 164 159 155 153 150 147 151 154 161 170 172 166 172 180 171 169 159 176 208 225 248 279 331 284 275 277 286 308 317 326 338
169 170 171 171 171 177 173 171 164 157 158 162 164 164 160 159 161 154 150 150 151 159 165 161 159 157 149 149 160 173 189 241 273 258 208 263 287 281 294 298 305 322 338
160 161 162 165 168 171 170 167 159 151 148 152 153 157 161 162 166 161 156 156 156 162 169 159 154 156 161 166 163 144 158 197 268 258 159 241 288 303 299 290 303 326 333
152 146 152 162 166 166 171 169 163 155 153 154 153 157 169 168 169 168 165 163 168 170 160 158 161 168 167 178 188 179 175 191 222 250 194 196 280 335 315 299 306 315 321